Location: Orinda
(37.8771°N, 122.1797°W)
Time: 16:27:29
(UTC+00:00)

Cosmos 2218 Rocket - Pass Details

Date: 21 October 2019
Orbit: 955 x 1007 km, 82.9° (Epoch: 20 November)

Event Time Altitude Azimuth Distance (km) Brightness Sun altitude
Rises 13:48:01 0° 195° (SSW) 3,718 7.0 -7.6°
Reaches altitude 10° 13:50:35 10° 198° (SSW) 2,769 6.3 -7.1°
Maximum altitude 13:56:53 62° 279° (W) 1,113 4.1 -5.9°
Drops below altitude 10° 14:03:10 10° 360° (N) 2,758 6.3 -4.7°
Sets 14:05:43 0° 4° (N) 3,702 7.0 -4.2°
